Voltar ao catálogo

FENGYUN 1C DEB

AtivoSSO
NORAD 38801·DEBRIS·🇨🇳 China

Lançado May 10, 1999 de Taiyuan Satellite Launch Center

Loading…

Próximas Passagens (próximas 24 horas)

TLE

EnvelhecendoSource: Space-Track

Época: Sep 6, 2026, 22:30 UTC

1 38801U 99025EUR 26249.93784931  .00000731  00000-0  17835-3 0  9990
2 38801  98.3404 293.5579 0341967 282.3625 202.4949 14.26004972681817

Acompanhe FENGYUN 1C DEB em tempo real com AllMySat

Download on the App Store